Hourly Data Report for July 30, 2003

SHERBROOKE A
QUEBEC

45°26'00.000" N
71°41'00.000" W
241.40 m
7028124
71610
YSC

Download Data

Hourly Data (July 2003)
Hourly Data Report for July 30, 2003
TIME
LST
Temp Definition
°C
Dew Point Definition
°C
Rel Hum Definition
%
Precip. Amount Definition
mm

Wind Dir Definition
10's deg

Wind Spd Definition
km/h
Visibility Definition
km
Stn Press Definition
kPa
Hmdx Definition


Wind Chill Definition


Weather Definition


00:00 14.0 12.6 91     0 15.0 98.94      
01:00 13.4 12.5 94     0 15.0 98.98     Rain
02:00 13.3 12.2 93     0 15.0 98.98     Rain
03:00 11.9 11.2 95     0 11.3 98.99      
04:00 11.3 10.5 95     0 4.8 99.07      
05:00 11.0 10.4 96   14 4 9.7 99.13      
06:00 14.2 13.0 92     0 15.0 99.20      
07:00 15.2 13.8 91     0 24.1 99.26     Mostly Cloudy
08:00 17.6 14.4 82   25 4 24.1 99.29     Mainly Clear
09:00 19.2 14.5 74   23 7 24.1 99.31     Mostly Cloudy
10:00 21.6 15.7 69   23 6 24.1 99.30 26   Mainly Clear
11:00 23.9 15.6 60   21 9 24.1 99.30 28   Mainly Clear
12:00 24.0 15.2 58   24 9 24.1 99.28 28   Mainly Clear
13:00 23.2 16.6 66     0 24.1 99.28 28   Mainly Clear
14:00 22.6 15.3 63   22 7 24.1 99.26 27   Mainly Clear
15:00 25.7 14.2 49   25 11 24.1 99.25 29   Mainly Clear
16:00 25.5 14.7 51   29 13 24.1 99.25 29   Mainly Clear
17:00 25.0 14.6 52   29 13 15.0 99.29 29    
18:00 23.8 15.5 60   30 6 15.0 99.32 28    
19:00 19.5 15.8 79     0 15.0 99.35      
20:00 16.2 14.1 87     0 15.0 99.39      
21:00 14.9 13.6 92   11 6 15.0 99.43      
22:00 15.7 14.0 90   9 7 15.0 99.47      
23:00 13.1 12.1 94   11 6 4.0 99.50      

Notes on Data Quality.

Legend

  • E = Estimated
  • M = Missing
  • NA = Not Available*
  • [empty] = Indicates an unobserved value
Date modified: